Location: Bazinghen
(50.8246°N, 1.6616°E)
Time: 16:52:57
(UTC+00:00)

MOS 1-B Rocket - Pass Details

Date: 09 April 2020
Orbit: 891 x 1605 km, 99.1° (Epoch: 25 May)

Event Time Altitude Azimuth Distance (km) Brightness Sun altitude
Rises 23:31:23 0° 17° (NNE) 3,681 8.0 -30.9°
Reaches altitude 10° 23:33:44 10° 20° (NNE) 2,793 7.1 -31.0°
Enters shadow 23:39:49 68° 93° (E) 1,192 4.3 -31.0°
